Vertical_Velocity
2 -21 -2 28 -2 -3 -3 -1 -2 7 -2 -5 -2 2 2 -3 2 -4 -1 3 -2 -2 -1 -3 -3 -3 3 -1 1 -1 -3 1 -9 10 2 -7 -9 -0 -3 3 7 7 4 3
-8 -7 15 4 2 -5 -0 -0 5 7 3 -6 -2 0 -3 -0 1 -5 -2 2 -3 -2 -0 -3 -1 -4 1 2 -1 -1 -1 -0 -1 -5 7 3 2 3 5 1 2 5 2 1
-4 14 6 -2 -2 -2 7 0 1 -0 -3 -5 -2 1 3 -2 1 1 -3 1 -1 -3 -0 -2 -3 -3 -3 -0 -4 -3 1 -1 -1 -0 -0 -2 8 -4 -2 -1 -3 -1 2 5
-21 2 9 4 1 4 -4 7 -1 -2 -1 -3 -4 -5 6 -1 -1 0 -8 1 -2 -3 -1 0 -3 -3 1 -3 -3 -2 -3 -0 -1 -0 2 1 1 9 10 5 -4 3 0 1
6 10 6 -5 12 -6 17 -6 -0 -4 -3 -6 5 -14 17 0 0 1 -7 -5 -0 -5 -1 2 2 -4 -4 0 -2 -1 -2 -0 -1 1 -6 4 3 6 2 3 5 -1 1 1
4 1 1 -1 1 1 1 2 0 -6 -1 -18 8 -9 17 5 -5 2 -5 -6 -1 -6 -2 0 2 2 0 -1 -3 1 -1 0 1 -2 1 1 -5 -3 -2 -0 1 1 -1 -1
3 5 11 1 -0 -1 -0 4 -5 -10 -9 2 5 -10 5 8 -5 1 2 -4 -1 -1 -3 -0 1 -0 0 -0 1 -3 -3 -3 -1 -3 -2 -1 1 -1 -2 -2 2 -1 2 -6
-5 4 2 18 2 5 -1 0 2 5 -2 9 6 -13 4 6 -3 -0 4 -7 -2 4 -7 -2 3 2 1 -1 -1 -1 -0 0 0 -1 -0 0 -1 2 -2 -3 -2 -1 4 4
0 3 3 11 6 -3 10 -11 23 -3 -3 -2 -2 -1 2 7 0 -3 3 4 -1 1 -5 -3 4 2 0 -0 -1 0 1 -0 2 -1 -5 -1 -2 -1 -2 -0 -1 -5 -3 -0
-6 -0 5 3 5 7 -7 7 -5 -9 -7 -8 -2 -1 4 2 -1 -1 -3 3 -5 1 -2 -3 1 1 -1 -2 -3 -3 -3 -2 0 3 -2 -3 -4 1 0 -3 -3 -1 -4 2
1 2 13 -3 6 12 5 3 -2 -5 -15 -10 1 -4 2 11 2 -2 2 3 2 -1 3 -9 -3 2 2 2 -1 -1 -6 -5 -3 -3 -3 -1 -0 -2 1 -2 6 -6 0 -3
-4 -4 4 7 9 6 0 3 -5 -17 1 -2 -6 8 6 3 3 -2 4 4 -1 1 -1 -2 -3 1 1 -1 -1 0 1 0 2 -3 -3 -0 2 4 5 -0 2 -3 -2 2
-2 -16 -1 7 10 -2 -7 -1 -10 -7 -3 -11 -13 16 1 2 5 -0 0 5 1 1 2 3 -11 2 2 3 0 -1 -2 -2 -2 -1 3 1 -0 -1 6 3 -3 -2 0 4
-9 -2 5 8 6 -2 3 3 -0 -10 -22 20 -15 3 10 4 5 1 0 -0 4 1 3 2 2 -1 3 3 -2 -2 -1 -0 2 2 2 1 0 -1 -0 -2 0 5 3 1
-9 -5 -1 5 1 -9 5 2 2 -26 21 -41 60 -6 3 4 1 6 -0 5 -1 -1 4 -0 0 -3 3 3 4 -0 -3 -1 1 1 -0 -3 -0 2 3 2 3 1 -0 -2
-8 -2 -2 1 1 -0 -13 -1 12 -12 12 -24 6 -5 7 5 -0 3 -0 -1 1 11 0 -2 -1 -4 -3 5 3 3 2 1 -6 -2 -0 0 0 -1 -3 -1 1 -0 1 1
-5 5 -2 -9 8 -4 -35 19 -6 2 -8 3 -19 25 2 1 3 5 5 -4 -4 -5 2 5 2 2 -2 -0 1 1 0 0 0 -1 -2 -3 -3 -1 2 1 3 3 2 2
8 -2 -7 2 -0 -23 12 -2 -4 -19 -5 -11 -16 1 8 6 2 -1 4 0 -2 5 5 1 -1 3 1 -1 2 3 3 3 1 1 0 0 1 -0 2 1 0 1 1 1
1 -9 -5 -8 -4 -11 -7 -4 -2 -11 5 7 1 6 1 5 -4 -2 13 -1 4 -1 -4 -5 0 2 3 -3 -1 -2 3 5 3 4 3 2 1 2 3 6 2 2 1 2
-1 -6 -7 -0 -8 -10 26 -4 8 -11 10 -12 -8 -10 -8 3 -32 31 3 4 -3 -1 7 -2 -0 2 4 1 0 -0 -1 3 3 2 1 2 0 1 2 3 3 2 0 -0
-3 -3 -3 0 -4 4 28 13 17 2 1 6 -5 -3 -1 -6 -13 3 -2 -15 3 -1 1 -1 3 4 1 -0 4 1 1 2 1 2 2 2 2 0 0 1 1 -0 1 -0
-4 -1 -6 3 1 1 -7 4 6 7 34 3 2 -3 -1 -2 1 2 1 -3 -7 -0 -4 2 1 6 7 0 1 -0 -2 0 3 2 2 1 1 0 0 -0 1 1 1 -1
-2 0 -3 10 29 12 7 -1 5 -4 27 29 6 4 0 -2 3 -4 -7 -10 1 3 8 -1 1 2 -3 -1 -3 2 1 -2 -1 0 0 0 -2 -0 1 0 0 -0 -0 -1
0 -8 2 -3 -5 3 10 3 2 0 -2 28 1 5 13 6 4 4 1 1 -1 3 -1 6 -2 -2 5 4 1 1 -0 1 -0 2 -1 0 -1 -1 -2 -2 -1 -1 -1 0
-4 1 -4 -1 -2 4 -12 7 10 -2 -11 1 2 2 -1 4 -1 -1 1 29 12 7 -1 4 3 -1 -3 1 -2 -0 -1 -0 0 -0 -2 -0 0 1 -0 1 0 1 2 1
-4 2 -3 10 -4 -3 4 -0 -2 1 -3 -0 -2 -1 -1 -2 -2 6 -0 -1 3 2 1 -3 -3 -1 -0 -2 -1 1 2 1 -2 -2 -3 -0 -1 -1 -0 0 1 4 1 1
Height
5715 5718 5720 5729 5732 5733 5733 5733 5735 5739 5735 5735 5734 5734 5737 5734 5733 5732 5732 5731 5730 5725 5723 5720 5715 5709 5705 5706 5708 5711 5711 5712 5713 5712 5713 5718 5725 5730 5735 5739 5744 5750 5753 5756
5705 5709 5713 5719 5721 5724 5725 5726 5730 5733 5729 5728 5728 5728 5731 5730 5729 5728 5729 5727 5726 5723 5721 5719 5716 5711 5707 5705 5706 5709 5711 5711 5714 5715 5716 5721 5726 5731 5735 5738 5742 5746 5750 5753
5693 5699 5701 5706 5711 5714 5717 5719 5725 5725 5721 5720 5722 5724 5727 5726 5725 5724 5724 5724 5724 5720 5720 5719 5717 5713 5710 5706 5706 5709 5709 5710 5713 5716 5718 5721 5724 5728 5732 5736 5740 5743 5747 5748
5679 5686 5690 5696 5702 5706 5710 5715 5714 5716 5713 5715 5715 5717 5722 5721 5721 5721 5720 5720 5721 5718 5718 5717 5716 5715 5713 5709 5707 5707 5708 5708 5710 5713 5714 5717 5720 5724 5728 5732 5734 5739 5742 5744
5673 5678 5680 5685 5694 5697 5704 5704 5704 5706 5705 5705 5711 5712 5720 5718 5717 5716 5717 5717 5718 5717 5715 5715 5715 5714 5714 5712 5710 5708 5708 5709 5710 5710 5711 5713 5717 5722 5725 5726 5730 5733 5736 5738
5663 5666 5670 5675 5682 5688 5691 5695 5695 5698 5698 5698 5707 5706 5715 5713 5711 5712 5714 5714 5714 5716 5713 5713 5713 5712 5713 5712 5712 5711 5711 5711 5712 5712 5711 5711 5714 5717 5719 5722 5725 5728 5730 5731
5655 5659 5665 5669 5674 5678 5683 5687 5688 5691 5689 5695 5699 5699 5706 5708 5706 5708 5710 5711 5712 5714 5711 5711 5712 5711 5711 5711 5710 5711 5711 5712 5712 5712 5713 5714 5716 5717 5718 5720 5722 5726 5727 5729
5646 5652 5655 5662 5665 5671 5675 5680 5681 5682 5685 5690 5688 5690 5698 5702 5701 5703 5705 5706 5707 5709 5710 5709 5710 5711 5710 5709 5710 5709 5708 5709 5710 5712 5713 5712 5715 5717 5718 5720 5720 5723 5727 5728
5637 5642 5647 5652 5656 5662 5665 5667 5677 5676 5677 5678 5680 5683 5687 5698 5697 5698 5700 5702 5702 5703 5707 5707 5707 5708 5709 5709 5708 5708 5708 5709 5710 5711 5711 5711 5714 5715 5717 5718 5719 5722 5724 5724
5627 5633 5637 5640 5646 5653 5654 5660 5664 5663 5667 5670 5673 5676 5678 5691 5690 5690 5694 5697 5697 5699 5701 5703 5703 5705 5706 5707 5706 5707 5707 5707 5709 5710 5710 5711 5711 5713 5714 5716 5716 5717 5718 5719
5617 5622 5631 5633 5638 5643 5647 5650 5654 5656 5660 5662 5665 5667 5671 5685 5684 5686 5690 5691 5693 5694 5696 5698 5699 5702 5702 5703 5703 5703 5704 5704 5704 5704 5706 5706 5707 5709 5711 5712 5712 5714 5714 5715
5606 5610 5617 5626 5629 5633 5637 5640 5644 5646 5653 5655 5658 5663 5667 5677 5679 5679 5684 5686 5688 5690 5691 5695 5696 5697 5697 5698 5698 5698 5698 5698 5700 5699 5700 5702 5703 5705 5705 5707 5708 5709 5709 5708
5597 5600 5605 5614 5620 5623 5627 5630 5632 5636 5641 5646 5649 5653 5658 5665 5672 5673 5676 5680 5683 5685 5687 5689 5691 5692 5693 5693 5693 5693 5692 5693 5693 5694 5696 5697 5698 5698 5699 5699 5701 5701 5701 5702
5584 5591 5595 5600 5606 5614 5618 5623 5626 5628 5632 5637 5640 5646 5652 5658 5668 5667 5671 5674 5677 5679 5681 5683 5686 5687 5688 5688 5689 5688 5688 5688 5688 5689 5691 5693 5693 5693 5694 5694 5695 5696 5696 5696
5574 5579 5584 5588 5594 5601 5606 5613 5618 5621 5629 5627 5638 5638 5643 5648 5660 5662 5663 5665 5668 5671 5674 5677 5680 5682 5683 5683 5684 5683 5682 5683 5683 5683 5684 5684 5686 5687 5688 5689 5689 5689 5689 5688
5564 5569 5573 5577 5582 5587 5594 5604 5607 5611 5614 5617 5623 5628 5635 5637 5650 5655 5655 5657 5661 5665 5665 5671 5674 5676 5677 5678 5678 5677 5676 5677 5678 5678 5678 5678 5679 5680 5680 5681 5681 5680 5680 5679
5559 5561 5562 5568 5571 5576 5582 5593 5596 5599 5605 5612 5614 5623 5625 5630 5638 5645 5647 5647 5651 5656 5659 5661 5665 5668 5670 5670 5671 5670 5670 5670 5671 5673 5673 5672 5672 5673 5674 5673 5672 5672 5671 5670
5553 5554 5553 5556 5558 5564 5580 5582 5585 5589 5595 5600 5605 5610 5615 5621 5627 5634 5638 5640 5644 5649 5652 5655 5656 5659 5661 5662 5663 5664 5664 5664 5665 5664 5665 5665 5665 5665 5665 5665 5665 5663 5662 5660
5547 5546 5547 5545 5549 5558 5569 5574 5578 5582 5592 5592 5594 5599 5604 5610 5613 5624 5629 5631 5635 5640 5641 5645 5648 5650 5653 5654 5656 5656 5657 5657 5658 5658 5658 5657 5656 5656 5655 5655 5653 5652 5650 5647
5541 5541 5538 5537 5541 5550 5562 5567 5572 5573 5580 5578 5582 5585 5592 5599 5601 5616 5616 5619 5623 5629 5633 5635 5639 5642 5644 5646 5648 5648 5648 5648 5649 5648 5648 5648 5648 5647 5646 5645 5644 5642 5639 5636
5535 5533 5530 5530 5533 5543 5553 5556 5561 5565 5572 5571 5573 5578 5584 5590 5596 5602 5604 5607 5615 5619 5623 5626 5630 5633 5635 5638 5639 5640 5640 5639 5639 5638 5638 5637 5637 5636 5635 5634 5633 5630 5627 5623
5530 5529 5529 5530 5531 5540 5545 5551 5552 5557 5562 5563 5566 5570 5576 5583 5588 5592 5595 5599 5604 5609 5613 5617 5621 5625 5627 5628 5629 5629 5629 5629 5630 5629 5628 5627 5626 5624 5623 5621 5618 5615 5612 5609
5527 5527 5527 5529 5531 5537 5540 5545 5547 5548 5549 5554 5560 5565 5570 5575 5580 5584 5587 5591 5595 5599 5604 5608 5611 5613 5615 5617 5618 5620 5620 5620 5618 5617 5617 5615 5614 5611 5609 5606 5604 5601 5598 5595
5523 5525 5526 5528 5528 5531 5535 5538 5541 5542 5545 5548 5553 5559 5564 5569 5573 5577 5580 5583 5586 5591 5594 5597 5600 5603 5606 5608 5610 5610 5610 5609 5608 5607 5605 5603 5601 5599 5597 5593 5591 5588 5584 5580
5517 5521 5525 5527 5528 5528 5530 5536 5539 5539 5543 5545 5548 5553 5556 5561 5566 5570 5574 5575 5579 5582 5586 5589 5592 5595 5597 5599 5600 5600 5600 5599 5598 5596 5594 5592 5590 5587 5584 5581 5577 5574 5569 5565
5514 5515 5517 5522 5523 5524 5524 5528 5534 5537 5538 5542 5544 5548 5552 5555 5559 5565 5567 5569 5572 5575 5579 5582 5585 5586 5587 5589 5588 5590 5590 5588 5587 5585 5583 5580 5577 5574 5570 5567 5563 5559 5555 5550